Date,TemperatureHighF,TemperatureAvgF,TemperatureLowF,DewpointHighF,DewpointAvgF,DewpointLowF,HumidityHigh,HumidityAvg,HumidityLow,PressureMaxIn,PressureMinIn,WindSpeedMaxMPH,WindSpeedAvgMPH,GustSpeedMaxMPH,PrecipitationSumIn
2013-2-1,29.5,20.3,9.3,38.7,36.0,30.7,35,34,33,30.01,29.75,11,3,16,0.00
2013-2-2,45.9,35.3,28.6,39.7,37.2,33.1,34,33,33,29.75,29.57,13,4,13,0.00
2013-2-3,36.3,31.1,25.7,39.0,37.1,32.9,34,33,32,29.69,29.51,15,2,16,0.04
2013-2-4,62.1,41.0,28.0,39.9,37.0,32.5,36,34,32,29.51,29.25,13,4,13,0.04
2013-2-5,59.5,38.5,24.4,39.6,37.1,32.2,35,34,33,29.63,29.39,11,2,12,0.00
2013-2-6,52.0,39.8,24.4,40.3,37.3,32.7,34,34,33,29.75,29.54,11,2,11,0.00
2013-2-7,58.1,44.8,34.3,41.0,38.0,33.8,35,34,33,29.54,29.34,15,2,15,0.04
2013-2-8,40.6,36.0,30.7,40.3,38.0,34.3,35,34,33,29.87,29.54,15,5,15,0.00
2013-2-9,42.3,36.2,30.7,39.9,37.5,33.1,34,33,33,29.87,29.51,12,3,12,0.17
2013-2-10,56.7,48.2,38.3,40.1,38.1,34.7,36,34,33,29.51,29.10,15,5,17,0.79
2013-2-11,52.3,42.9,29.3,39.9,38.1,34.5,36,35,34,29.63,29.25,15,4,17,0.00
2013-2-12,47.3,36.6,24.1,39.9,37.0,32.0,35,34,33,29.66,29.42,6,0,6,0.00
2013-2-13,56.7,44.6,37.4,39.9,37.8,34.2,35,34,33,29.42,29.31,11,2,11,0.00
2013-2-14,58.5,46.2,34.7,41.4,37.9,33.8,37,34,33,29.54,29.31,10,2,11,0.00
2013-2-15,42.1,36.1,27.3,39.6,36.7,34.2,36,34,32,29.78,29.54,15,4,15,0.00
2013-2-16,38.5,28.7,20.3,38.8,36.1,30.7,34,33,32,30.01,29.69,15,3,15,0.00
2013-2-17,48.7,35.5,18.5,38.8,36.4,29.8,34,33,31,30.28,29.51,15,3,15,0.00
2013-2-18,56.7,46.9,35.1,40.1,37.7,33.6,35,34,33,29.96,29.25,17,6,18,0.04
2013-2-19,38.5,31.6,24.4,39.0,36.6,33.3,36,34,33,30.64,29.57,14,4,16,0.00
2013-2-20,27.9,23.6,19.8,38.3,36.0,30.0,34,33,32,31.02,30.49,9,3,9,0.00
2013-2-21,32.9,26.9,19.6,39.2,36.5,30.0,33,32,31,31.02,30.34,23,4,23,0.00
2013-2-22,37.8,32.3,20.7,39.6,37.4,33.8,34,33,32,31.02,30.52,11,2,11,0.25
2013-2-23,38.5,26.6,15.1,37.6,36.4,31.5,33,33,31,31.02,30.90,6,1,6,0.17
2013-2-24,44.8,32.5,16.7,39.7,36.7,32.5,34,33,32,31.02,31.02,10,1,10,0.00
2013-2-25,47.3,38.8,28.4,39.0,36.6,32.2,34,33,33,31.02,31.02,17,4,17,0.29
2013-2-26,46.8,38.6,35.1,39.4,37.3,33.1,34,33,33,31.02,31.02,15,4,15,0.62
2013-2-27,36.9,34.4,32.7,39.7,37.3,33.3,34,33,32,31.02,29.19,11,4,11,0.04
2013-2-28,35.8,34.0,32.7,38.8,37.0,33.1,34,33,32,29.60,29.39,11,4,13,0.00